Date String (YYYY-MM-DD hh:mm:ss) UTC,Instrument flags,absolute air pressure of the measurement (hPa),sample flow rate (lpm),inlet stack bypass flow (lpm),air temperature of the measurement (°C),ambient temperature measured by the external sensor (°C),aerosol sample conditioner tube jacket temperature (°C),OPC LED temperature (°C),internal box temperature (°C),relative humidity of the measurement (%),span deviation,mass concentration of particles derived from Lorenz-Mie calculation of OPC scattering (μg/m³),mass concentration of particles derived from Lorenz-Mie calculation of OPC scattering (μg/m³),mass concentration of particles derived from Lorenz-Mie calculation of OPC scattering (μg/m³)
DateTimeUTC,F1_M11,P_M11,Q1_M11,Q2_M11,T1_M11,T2_M11,T3_M11,T4_M11,T5_M11,U1_M11,ZSPAN_M11,X2_M11,X0_M11,X1_M11
2024-04-11 05:00:00,SystemResetWarning,0834.5,4.99,000.00,025.8,024.9,000.0,034.4,027.7,017.6,0000.0,0001.99,0009.03,0001.31
2024-04-11 05:01:00,SystemResetWarning,0834.5,5.00,000.00,025.8,024.9,000.0,034.4,027.6,017.7,0000.0,0001.97,0009.09,0001.31
2024-04-11 05:02:00,SystemResetWarning,0834.4,5.01,000.00,025.7,024.9,000.0,034.4,027.6,017.7,0000.0,0002.00,0009.13,0001.31
2024-04-11 05:03:00,SystemResetWarning,0834.4,5.00,000.00,025.7,024.9,000.0,034.4,027.6,017.7,0000.0,0001.99,0008.91,0001.29
2024-04-11 05:04:00,SystemResetWarning,0834.4,5.01,000.00,025.7,024.9,000.0,034.4,027.6,017.7,0000.0,0001.90,0008.25,0001.29
2024-04-11 05:05:00,SystemResetWarning,0834.4,5.00,000.00,025.7,024.8,000.0,034.4,027.6,017.7,0000.0,0001.87,0007.83,0001.28
2024-04-11 05:06:00,SystemResetWarning,0834.4,4.99,000.00,025.7,024.8,000.0,034.4,027.6,017.7,0000.0,0001.90,0008.88,0001.26
2024-04-11 05:07:00,SystemResetWarning,0834.4,5.01,000.00,025.7,024.8,000.0,034.4,027.6,017.7,0000.0,0001.95,0009.61,0001.24
2024-04-11 05:08:00,SystemResetWarning,0834.4,5.00,000.00,025.7,024.8,000.0,034.4,027.6,017.6,0000.0,0001.95,0009.15,0001.23
2024-04-11 05:09:00,SystemResetWarning,0834.4,5.00,000.00,025.7,024.8,000.0,034.4,027.6,017.6,0000.0,0001.91,0008.16,0001.23
2024-04-11 05:10:00,SystemResetWarning,0834.4,4.99,000.00,025.7,024.8,000.0,034.4,027.6,017.6,0000.0,0001.91,0008.00,0001.22
2024-04-11 05:11:00,SystemResetWarning,0834.5,5.00,000.00,025.7,024.8,000.0,034.4,027.6,017.6,0000.0,0001.90,0007.56,0001.22
2024-04-11 05:12:00,SystemResetWarning,0834.5,5.00,000.00,025.7,024.8,000.0,034.4,027.6,017.6,0000.0,0001.87,0007.20,0001.23
2024-04-11 05:13:00,SystemResetWarning,0834.5,5.01,000.00,025.7,024.8,000.0,034.4,027.6,017.6,0000.0,0001.90,0007.27,0001.25
2024-04-11 05:14:00,SystemResetWarning,0834.5,5.01,000.00,025.7,024.8,000.0,034.4,027.6,017.8,0000.0,0001.89,0007.17,0001.25
2024-04-11 05:15:00,SystemResetWarning,0834.5,4.99,000.00,025.7,024.8,000.0,034.4,027.6,017.9,0000.0,0001.92,0007.21,0001.26
2024-04-11 05:16:00,SystemResetWarning,0834.5,4.99,000.00,025.7,024.8,000.0,034.4,027.5,017.9,0000.0,0001.91,0007.16,0001.26
2024-04-11 05:17:00,SystemResetWarning,0834.5,5.00,000.00,025.7,024.8,000.0,034.3,027.6,017.9,0000.0,0001.86,0004.31,0001.27
2024-04-11 05:18:00,SystemResetWarning,0834.4,5.01,000.00,025.7,024.8,000.0,034.3,027.6,017.8,0000.0,0001.81,0003.07,0001.28
2024-04-11 05:19:00,SystemResetWarning,0834.4,4.99,000.00,025.7,024.8,000.0,034.3,027.6,017.8,0000.0,0001.82,0003.10,0001.28
2024-04-11 05:20:00,SystemResetWarning,0834.4,5.00,000.00,025.6,024.8,000.0,034.3,027.5,017.9,0000.0,0001.83,0003.80,0001.28
2024-04-11 05:21:00,SystemResetWarning,0834.4,4.99,000.00,025.6,024.8,000.0,034.3,027.6,017.7,0000.0,0001.84,0004.34,0001.29
2024-04-11 05:22:00,SystemResetWarning,0834.4,5.01,000.00,025.6,024.8,000.0,034.3,027.5,017.7,0000.0,0001.84,0004.58,0001.31
2024-04-11 05:23:00,SystemResetWarning,0834.4,5.00,000.00,025.6,024.8,000.0,034.3,027.5,017.5,0000.0,0001.94,0004.90,0001.33
2024-04-11 05:24:00,SystemResetWarning,0834.4,5.01,000.00,025.6,024.8,000.0,034.3,027.5,017.5,0000.0,0001.95,0005.63,0001.33
2024-04-11 05:25:00,SystemResetWarning,0834.4,4.99,000.00,025.6,024.8,000.0,034.3,027.5,017.3,0000.0,0001.94,0006.05,0001.33
2024-04-11 05:26:00,SystemResetWarning,0834.4,5.00,000.00,025.6,024.8,000.0,034.3,027.5,017.3,0000.0,0001.93,0006.09,0001.33
2024-04-11 05:27:00,SystemResetWarning,0834.4,5.01,000.00,025.6,024.7,000.0,034.3,027.5,017.3,0000.0,0001.97,0006.19,0001.33
2024-04-11 05:28:00,SystemResetWarning,0834.4,5.00,000.00,025.6,024.7,000.0,034.3,027.5,017.2,0000.0,0001.96,0006.26,0001.32
2024-04-11 05:29:00,SystemResetWarning,0834.4,5.00,000.00,025.6,024.7,000.0,034.3,027.5,017.1,0000.0,0001.93,0006.23,0001.31
2024-04-11 05:30:00,SystemResetWarning,0834.4,4.99,000.00,025.6,024.7,000.0,034.3,027.5,017.2,0000.0,0001.93,0006.27,0001.30
2024-04-11 05:31:00,SystemResetWarning,0834.4,4.99,000.00,025.6,024.7,000.0,034.3,027.5,017.1,0000.0,0001.92,0006.29,0001.29
2024-04-11 05:32:00,SystemResetWarning,0834.4,4.99,000.00,025.6,024.7,000.0,034.3,027.5,016.7,0000.0,0001.90,0006.23,0001.27
2024-04-11 05:33:00,SystemResetWarning,0834.3,5.00,000.00,025.6,024.7,000.0,034.3,027.5,016.7,0000.0,0001.86,0006.19,0001.24
2024-04-11 05:34:00,SystemResetWarning,0834.4,5.00,000.00,025.6,024.7,000.0,034.2,027.5,016.6,0000.0,0001.79,0006.08,0001.22
2024-04-11 05:35:00,SystemResetWarning,0834.4,5.00,000.00,025.6,024.7,000.0,034.2,027.4,016.8,0000.0,0001.77,0005.75,0001.19
2024-04-11 05:36:00,SystemResetWarning,0834.4,5.01,000.00,025.6,024.7,000.0,034.2,027.5,016.7,0000.0,0001.74,0005.07,0001.17
2024-04-11 05:37:00,SystemResetWarning,0834.4,5.00,000.00,025.5,024.7,000.0,034.2,027.4,016.7,0000.0,0001.72,0005.11,0001.16
2024-04-11 05:38:00,SystemResetWarning,0834.4,5.00,000.00,025.5,024.7,000.0,034.2,027.4,016.4,0000.0,0001.65,0004.88,0001.13
2024-04-11 05:39:00,SystemResetWarning,0834.4,5.01,000.00,025.5,024.7,000.0,034.2,027.4,016.4,0000.0,0001.62,0004.77,0001.12
2024-04-11 05:40:00,SystemResetWarning,0834.4,5.00,000.00,025.5,024.7,000.0,034.2,027.4,016.3,0000.0,0001.63,0004.86,0001.10
2024-04-11 05:41:00,SystemResetWarning,0834.4,5.00,000.00,025.5,024.6,000.0,034.2,027.4,016.4,0000.0,0001.60,0004.71,0001.09
2024-04-11 05:42:00,SystemResetWarning,0834.4,5.00,000.00,025.5,024.6,000.0,034.2,027.4,016.3,0000.0,0001.58,0004.12,0001.07
2024-04-11 05:43:00,SystemResetWarning,0834.4,4.99,000.00,025.5,024.6,000.0,034.2,027.4,016.3,0000.0,0001.58,0003.50,0001.07
2024-04-11 05:44:00,SystemResetWarning,0834.4,5.00,000.00,025.5,024.6,000.0,034.2,027.4,016.3,0000.0,0001.56,0003.21,0001.06
2024-04-11 05:45:00,SystemResetWarning,0834.4,5.00,000.00,025.5,024.6,000.0,034.2,027.4,016.4,0000.0,0001.54,0003.08,0001.04
2024-04-11 05:46:00,SystemResetWarning,0834.4,5.00,000.00,025.5,024.6,000.0,034.2,027.4,016.5,0000.0,0001.53,0002.87,0001.04
2024-04-11 05:47:00,SystemResetWarning,0834.3,5.00,000.00,025.5,024.6,000.0,034.2,027.4,016.6,0000.0,0001.51,0002.85,0001.03
2024-04-11 05:48:00,SystemResetWarning,0834.4,4.99,000.00,025.5,024.6,000.0,034.2,027.4,016.7,0000.0,0001.54,0002.83,0001.03
2024-04-11 05:49:00,SystemResetWarning,0834.4,5.00,000.00,025.5,024.6,000.0,034.1,027.4,016.8,0000.0,0001.53,0002.77,0001.03
2024-04-11 05:50:00,SystemResetWarning,0834.3,5.00,000.00,025.5,024.6,000.0,034.1,027.4,016.7,0000.0,0001.55,0002.88,0001.02
2024-04-11 05:51:00,SystemResetWarning,0834.3,5.00,000.00,025.5,024.6,000.0,034.1,027.4,016.6,0000.0,0001.54,0002.74,0001.02
2024-04-11 05:52:00,SystemResetWarning,0834.3,5.00,000.00,025.4,024.6,000.0,034.1,027.3,016.6,0000.0,0001.55,0002.75,0001.02
2024-04-11 05:53:00,SystemResetWarning,0834.3,5.00,000.00,025.4,024.6,000.0,034.1,027.3,016.5,0000.0,0001.51,0002.70,0001.02
2024-04-11 05:54:00,SystemResetWarning,0834.4,5.00,000.00,025.4,024.6,000.0,034.1,027.4,016.5,0000.0,0001.46,0002.58,0001.02
2024-04-11 05:55:00,SystemResetWarning,0834.4,5.01,000.00,025.4,024.6,000.0,034.1,027.3,016.6,0000.0,0001.46,0002.56,0001.02
2024-04-11 05:56:00,SystemResetWarning,0834.4,5.01,000.00,025.4,024.6,000.0,034.1,027.3,016.6,0000.0,0001.46,0002.77,0001.02
2024-04-11 05:57:00,SystemResetWarning,0834.4,5.00,000.00,025.4,024.6,000.0,034.1,027.3,016.7,0000.0,0001.43,0003.03,0001.01
2024-04-11 05:58:00,SystemResetWarning,0834.4,5.00,000.00,025.4,024.6,000.0,034.1,027.3,016.8,0000.0,0001.42,0002.98,0001.02
2024-04-11 05:59:00,SystemResetWarning,0834.3,5.00,000.00,025.4,024.6,000.0,034.1,027.3,016.8,0000.0,0001.42,0002.99,0001.02
